Welcome to the New NWS' Forecast!
Most changes are behind the scenes, but click here for differences you might notice.
Latest weather observations around

Kansas City, Kansas City Downtown Airport (KMKC)

Using English Units (Switch to International System of Units)
Date/ Time (CST) Wind (mph) Vis. (mi) Weather Sky Cond. Temp (°F) Rel. Humidity Wind Chill (°F) Heat Index (°F) Pressure Precip. (in)
Air Dwpt 6 hour Altimeter (inHg) Sea level (inHg) 1 hr 3 hr 6 hr
Max Min
Nov 21 14:54   10 Clear CLR 48 10     21%     30.17 30.17      
Nov 21 13:54   10 Clear CLR 51 13     21%     30.14 30.14      
Nov 21 12:54   10 Clear CLR 51 21     30%     30.11 30.11      
Nov 21 11:54 NNW 16 10 Mostly Clear FEW110 50 26     39% 44   30.09 30.09      
Nov 21 10:54   10 Clear CLR 51 30     44%     30.05 30.05      
Nov 21 09:54 N 11 10 Mostly Cloudy BKN110 50 28     42% 46   30.02 30.01      
Nov 21 08:54 N 13 10 Cloudy OVC110 50 28     42% 45   29.99 29.99      
Nov 21 07:54 N 11 10 Clear CLR 50 31     48% 46   29.92 29.92      
Nov 21 06:54 Calm 10 Clear CLR 49 32     52%     29.85 29.85      
Nov 21 05:54 W 3 10 Clear CLR 49 32     52% 48   29.81 29.8      
Nov 21 04:54 SW 7 10 Clear CLR 48 31     51% 45   29.77 29.77      
Nov 21 03:54 SW 9 10 Clear CLR 50 31     48% 46   29.76 29.75      
Nov 21 02:54 SW 9 10 Clear CLR 51 30     44%     29.77 29.76      
Nov 21 01:54 SW 14 10 Clear CLR 53 30     41%     29.75 29.75      
Nov 21 00:54 SW 13 10 Clear CLR 53 30     41%     29.75 29.74      
Nov 20 23:54 SW 13 10 Clear CLR 54 29     38%     29.75 29.74      
Nov 20 22:54 SSW 13 10 Clear CLR 54 30     40%     29.75 29.74      
Nov 20 21:54   10 Clear CLR 55 30     38%     29.74 29.73      
Nov 20 20:54   10 Clear CLR 56 30     37%     29.74 29.74      
Nov 20 19:54   10 Clear CLR 57 29     34%     29.75 29.75      
Nov 20 18:54 SSW 16 10 Clear CLR 59 28     31%     29.77 29.77      
Nov 20 17:54   10 Clear CLR 59 28     31%     29.76 29.75      
Nov 20 16:54   10 Clear CLR 61 27     27%     29.75 29.74      
Nov 20 15:54 SSW 18 10 Clear CLR 61 29     30%     29.75 29.75      
Nov 20 14:54   10 Clear CLR 63 29     28%     29.75 29.74      
Nov 20 13:54   10 Clear CLR 62 29     28%     29.79 29.78      
Nov 20 12:54 SSW 21 10 Clear and Windy CLR 62 28     27%     29.81 29.8      
Nov 20 11:54   10 Clear CLR 62 28     27%     29.84 29.84      
Nov 20 10:54 SW 20 10 Clear and Windy CLR 59 28     31%     29.89 29.88      
Nov 20 09:54   10 Clear CLR 54 29     38%     29.9 29.91      
Nov 20 08:54 SSW 17 10 Clear CLR 50 28     42% 44   29.93 29.93      
Nov 20 07:54 SSW 15 10 Clear CLR 47 28     48% 41   29.95 29.95      
Nov 20 06:54 SSW 10 10 Clear CLR 45 27     49% 40   29.96 29.96      
Nov 20 05:54 SSW 10 10 Clear CLR 44 27     51% 39   29.98 29.98      
Nov 20 04:54 SSW 9 10 Clear CLR 46 27     47% 41   29.98 29.98      
Nov 20 03:54 SSW 11 10 Clear CLR 45 28     51% 39   29.98 29.98      
Nov 20 02:54 S 13 10 Clear CLR 46 28     49% 40   30 30      
Nov 20 01:54 SSW 13 10 Clear CLR 46 28     49% 40   30.01 30.01      
Nov 20 00:54 S 13 10 Clear CLR 48 28     46% 43   30.03 30.03      
Nov 19 23:54 SSW 11 10 Clear CLR 47 28     48% 42   30.04 30.04      
Nov 19 22:54 SSW 11 10 Clear CLR 46 29     51% 41   30.04 30.05      
Nov 19 21:54 SSW 11 10 Clear CLR 47 29     49% 42   30.05 30.06      
Nov 19 20:54 SSW 13 10 Clear CLR 48 29     47% 43   30.06 30.06      
Nov 19 19:54 SSW 13 10 Clear CLR 47 29     49% 41   30.08 30.09      
Nov 19 18:54 SSW 9 10 Clear CLR 48 29     47% 44   30.09 30.11      
Nov 19 17:54 SSW 8 10 Clear CLR 47 28     48% 43   30.11 30.12      
Nov 19 16:54 SSW 9 10 Clear CLR 50 29     44% 46   30.11 30.12      
Nov 19 15:54 SW 10 10 Clear CLR 54 28     37%     30.13 30.14      
Nov 19 14:54 SW 11 10 Clear CLR 53 27     36%     30.14 30.15      
Nov 19 13:54 SSW 10 10 Clear CLR 52 26     36%     30.17 30.18      
Nov 19 12:54 7 10 Clear CLR 50 24     36% 47   30.2 30.21      
Nov 19 11:54 S 6 10 Clear CLR 46 22     38% 43   30.25 30.26      
Nov 19 10:54 3 10 Clear CLR 42 21     43% 40   30.29 30.3      
Nov 19 09:54 Calm 10 Clear CLR 39 23     52%     30.3 30.31      
Nov 19 08:54 SSW 3 10 Clear CLR 36 25     64% 33   30.3 30.32      
Nov 19 07:54 WSW 5 10 Clear CLR 32 23     69% 27   30.28 30.3      
Nov 19 06:54 Calm 10 Clear CLR 32 22     66%     30.26 30.27      
Nov 19 05:54 NW 3 10 Clear CLR 32 24     72% 29   30.26 30.27      
Nov 19 04:54 NW 6 10 Clear CLR 34 24     67% 29   30.26 30.27      
Nov 19 03:54 NW 3 10 Clear CLR 34 25     69% 31   30.25 30.26      
Nov 19 02:54 WNW 5 10 Clear CLR 35 25     66% 31   30.24 30.24      
Nov 19 01:54 WNW 5 10 Clear CLR 36 26     67% 32   30.22 30.22      
Nov 19 00:54 WNW 5 10 Clear CLR 37 26     64% 33   30.22 30.23      
Nov 18 23:54 WNW 3 10 Clear CLR 38 26     62% 36   30.21 30.22      
Nov 18 22:54 NW 8 10 Clear CLR 41 26     55% 36   30.2 30.21      
Nov 18 21:54 NW 9 10 Clear CLR 42 27     55% 37   30.19 30.19      
Nov 18 20:54 NW 9 10 Clear CLR 44 27     51% 39   30.17 30.17      
Nov 18 19:54 NW 10 10 Clear CLR 46 29     51% 41   30.13 30.14      
Nov 18 18:54 NW 11 10 Clear CLR 48 27     44% 43   30.1 30.1      
Nov 18 17:54 NW 10 10 Clear CLR 49 31     50% 45   30.07 30.07      
Nov 18 16:54 NW 14 10 Clear CLR 50 30     46% 45   30.03 30.03      
Nov 18 15:54   10 Clear CLR 52 31     44%     30 29.99      
Nov 18 14:35 NW 17 10 Clear CLR 51 29     42%     29.97        
Nov 18 13:54 NW 18 10 Clear CLR 50 31     48% 44   29.95 29.95      
Jun 12 04:54 S 9 10 Clear CLR 74 65     74%   74 29.89 29.86      
Jun 11 15:54   10 Clear CLR 92 69     47%   97 29.79 29.76      
Jun 11 13:54 S 17 10 Clear CLR 91 71     52%   98 29.81 29.78      
Jun 11 05:54   10 Clear CLR 73 65     76%   74 29.83 29.8      
Jun 10 19:54   10 Partly Cloudy SCT042 84 69     61%   88 29.74 29.72      
Jun 10 07:54 SSW 11 10 Clear CLR 73 63     71%   73 29.83 29.81      
Jun 10 06:54 S 9 10 Clear CLR 70 61     73%     29.83 29.81      
Jun 07 13:54 ENE 7 10 Clear CLR 81 47     30%   80 30.08 30.06